Total_Precipitation_Accumulation
0.08 0.19 0.50 0.90 1.68 1.87 1.40 0.86 0.65 0.65 0.71 0.71 0.62 0.61 0.71 0.88 1.29 2.11 1.83 1.37 1.12 1.16 1.36 1.53 1.87 1.84 1.77 1.65 1.65 1.73 1.70 1.56 1.42 1.38 1.39 1.40 1.42 1.35 1.38 1.44 1.43 1.47 1.47 1.53 1.61 1.53 1.50 1.52 1.57
0.18 0.39 0.74 1.39 1.92 1.51 1.30 0.77 0.48 0.54 0.62 0.77 0.77 0.66 0.60 0.65 0.72 1.01 1.36 1.51 1.02 0.90 1.05 1.16 1.45 1.54 1.54 1.46 1.48 1.50 1.40 1.31 1.26 1.22 1.31 1.37 1.44 1.47 1.48 1.53 1.53 1.53 1.53 1.55 1.57 1.55 1.51 1.55 1.65
0.29 0.51 0.83 1.47 1.21 0.96 0.98 0.63 0.45 0.37 0.54 0.80 0.78 0.58 0.68 0.85 0.82 1.02 1.24 1.26 0.95 0.85 0.86 1.09 1.34 1.40 1.42 1.37 1.35 1.35 1.26 1.23 1.24 1.25 1.28 1.32 1.42 1.52 1.60 1.65 1.67 1.70 1.77 1.69 1.62 1.62 1.53 1.49 1.53
0.41 0.61 0.89 0.94 0.51 0.37 0.46 0.50 0.50 0.49 0.67 0.82 0.69 0.64 0.75 0.91 0.90 0.91 0.94 1.01 0.82 0.91 0.94 1.13 1.43 1.40 1.34 1.25 1.19 1.17 1.18 1.21 1.21 1.26 1.31 1.43 1.46 1.47 1.58 1.65 1.71 1.81 1.77 1.69 1.70 1.72 1.50 1.43 1.48
0.40 0.66 0.99 0.64 0.33 0.25 0.26 0.30 0.38 0.56 0.74 0.87 0.76 0.77 0.99 0.96 0.80 0.75 0.79 0.96 0.94 1.03 1.05 1.16 1.44 1.43 1.31 1.19 1.11 1.09 1.06 1.11 1.09 1.13 1.25 1.44 1.44 1.36 1.45 1.60 1.68 1.65 1.70 1.73 1.75 1.72 1.61 1.56 1.49
0.48 0.58 0.72 0.43 0.24 0.19 0.22 0.28 0.42 0.61 0.66 0.75 0.86 0.97 1.20 1.05 0.88 0.80 0.86 1.00 1.02 1.01 0.98 1.20 1.41 1.42 1.33 1.19 1.08 1.08 1.05 1.01 1.04 1.08 1.19 1.30 1.34 1.35 1.46 1.60 1.57 1.51 1.52 1.60 1.68 1.67 1.66 1.56 1.48
0.50 0.54 0.48 0.28 0.17 0.18 0.24 0.34 0.40 0.54 0.62 0.83 0.89 0.99 1.25 1.24 1.00 0.83 0.95 1.23 1.26 1.17 1.04 1.24 1.42 1.30 1.28 1.24 1.12 1.10 1.07 1.03 1.03 1.05 1.15 1.22 1.33 1.38 1.52 1.72 1.70 1.58 1.49 1.52 1.61 1.58 1.66 1.47 1.37
0.32 0.36 0.33 0.24 0.14 0.17 0.21 0.28 0.40 0.55 0.65 0.72 0.86 1.05 1.17 1.11 0.97 0.99 1.20 1.62 1.83 1.75 1.51 1.29 1.31 1.30 1.23 1.19 1.20 1.22 1.06 0.98 1.05 1.15 1.27 1.34 1.43 1.53 1.66 1.74 1.89 1.76 1.63 1.68 1.75 1.62 1.50 1.44 1.43
0.17 0.27 0.27 0.19 0.14 0.16 0.22 0.28 0.35 0.40 0.51 0.73 0.94 1.12 1.07 0.89 0.92 1.15 1.42 1.77 2.02 1.88 1.77 1.54 1.44 1.41 1.38 1.30 1.17 1.36 1.22 1.11 1.25 1.55 1.61 1.82 1.99 1.91 2.00 1.88 2.05 1.96 1.96 2.14 2.21 2.02 1.84 1.73 1.69
0.11 0.17 0.14 0.09 0.09 0.09 0.15 0.24 0.31 0.45 0.76 1.21 1.45 1.34 1.12 0.99 1.10 1.36 1.57 1.63 1.75 1.80 1.77 1.82 1.64 1.58 1.58 1.44 1.64 2.00 1.77 1.74 1.98 2.13 2.05 2.54 2.81 2.63 2.11 2.15 2.48 2.50 2.59 2.73 2.78 2.78 2.45 2.14 1.90
0.06 0.09 0.07 0.06 0.06 0.06 0.10 0.19 0.29 0.49 1.00 1.49 1.69 1.40 1.20 1.20 1.30 1.44 1.80 1.93 2.03 2.02 1.89 1.99 1.89 1.82 1.91 2.01 2.04 2.26 2.42 2.54 2.66 2.63 2.68 3.00 2.88 2.53 2.25 2.48 2.89 2.95 2.94 2.99 3.14 3.20 2.68 2.59 2.54
0.04 0.05 0.04 0.03 0.04 0.05 0.08 0.18 0.38 0.64 1.03 1.30 1.24 1.11 1.10 1.36 1.55 1.73 2.04 2.36 2.45 2.51 2.44 2.22 2.13 2.36 2.44 2.33 2.27 2.17 2.02 2.06 2.31 2.45 2.41 2.88 3.27 3.16 3.04 3.16 3.13 3.31 3.53 3.81 3.51 3.41 3.14 3.05 2.80
0.03 0.04 0.04 0.04 0.04 0.08 0.11 0.20 0.40 0.71 0.92 0.97 0.85 0.91 1.18 1.49 1.76 2.21 2.63 2.71 2.70 2.95 3.10 2.89 2.81 2.79 2.67 2.75 2.41 2.07 2.00 1.85 1.83 2.16 2.38 2.62 3.03 3.21 3.29 3.10 3.11 2.99 3.13 3.31 3.31 3.01 3.08 3.17 3.04
0.03 0.04 0.05 0.06 0.06 0.10 0.19 0.27 0.40 0.63 0.71 0.72 0.79 1.03 1.25 1.65 1.96 2.48 2.98 3.05 3.14 3.41 3.63 3.51 3.50 3.32 3.04 2.81 2.70 2.53 2.25 2.15 1.87 2.11 2.22 2.55 2.94 3.05 2.96 3.06 3.20 3.01 2.97 2.94 2.95 2.98 3.23 3.34 3.32
0.03 0.06 0.11 0.12 0.13 0.13 0.22 0.45 0.53 0.69 0.76 0.74 0.90 1.07 1.44 1.90 2.16 2.48 2.73 3.12 3.55 3.93 4.01 3.97 3.98 3.90 3.87 3.55 3.15 2.76 2.65 2.36 2.30 2.32 2.26 2.50 2.83 3.03 2.98 2.98 2.84 2.81 2.85 2.97 2.98 3.05 3.21 3.06 3.11
0.05 0.12 0.25 0.24 0.20 0.18 0.25 0.69 0.87 0.79 0.76 0.82 0.98 1.30 1.57 1.87 2.27 2.49 2.81 3.16 3.57 4.08 4.47 4.56 4.08 4.06 4.12 4.03 3.72 3.28 3.21 3.04 2.86 2.59 2.46 2.44 2.66 2.74 2.82 2.64 2.55 2.59 2.46 2.58 2.80 2.81 2.85 2.94 3.10
0.10 0.17 0.24 0.33 0.23 0.21 0.34 0.87 1.19 0.89 0.71 0.85 1.13 1.43 1.78 2.02 2.43 2.55 2.73 3.01 3.47 4.35 5.24 5.26 4.77 4.37 4.09 4.03 4.06 3.93 3.78 3.43 2.99 2.77 2.69 2.53 2.41 2.24 2.32 2.30 2.38 2.30 2.27 2.35 2.20 2.61 2.77 2.93 3.03
0.10 0.16 0.28 0.42 0.28 0.27 0.41 0.83 0.86 0.77 0.92 0.93 0.98 1.19 1.52 1.65 1.95 2.22 2.50 3.04 3.84 5.03 5.80 5.72 5.12 4.69 4.37 4.20 4.05 4.00 3.75 3.46 3.01 2.85 2.71 2.41 2.39 2.11 2.12 2.09 2.17 2.08 2.20 2.40 2.51 2.73 2.70 2.63 2.71
0.08 0.14 0.27 0.32 0.26 0.35 0.46 0.68 0.78 0.91 1.09 1.07 0.93 0.98 1.28 1.47 1.75 2.21 2.76 3.61 4.68 5.60 5.87 5.38 4.91 4.60 4.22 3.84 3.28 2.95 2.99 2.90 2.62 2.36 2.07 2.00 1.95 2.04 2.20 1.98 2.19 2.03 2.10 2.21 2.30 2.42 2.44 2.34 2.42
0.09 0.15 0.25 0.31 0.23 0.29 0.45 0.76 1.09 1.08 1.00 0.95 1.01 1.03 1.13 1.48 1.91 2.63 3.66 4.24 4.48 4.62 4.38 4.06 3.81 3.62 3.18 2.92 2.79 2.59 2.61 2.34 2.18 2.12 2.16 1.84 1.74 1.81 1.77 2.00 2.02 2.01 2.18 2.23 2.20 2.32 2.29 2.11 2.19
0.13 0.17 0.24 0.30 0.22 0.26 0.50 0.98 1.25 1.24 1.02 0.88 0.96 0.98 1.12 1.52 2.10 2.90 3.47 3.60 3.31 3.00 2.92 2.88 2.95 2.71 2.61 2.66 2.62 2.56 2.62 2.34 2.10 2.02 2.08 1.77 1.54 1.54 1.63 1.71 1.83 2.03 1.95 2.09 2.14 2.08 2.16 2.21 2.19
0.12 0.10 0.10 0.13 0.23 0.43 0.62 1.26 1.46 1.22 1.15 0.96 0.99 1.00 1.01 1.28 1.63 2.06 2.30 2.19 2.31 2.45 2.46 2.57 2.67 2.43 2.42 2.39 2.14 2.09 2.08 1.98 1.90 1.87 1.93 2.00 1.64 1.45 1.43 1.50 1.64 1.81 1.77 1.99 1.80 1.93 2.17 2.25 2.12
0.06 0.05 0.08 0.15 0.30 0.51 0.70 1.00 1.20 1.02 1.17 0.97 0.86 0.86 0.80 0.94 1.02 1.13 1.26 1.42 1.63 1.73 1.90 2.19 2.45 2.40 2.25 2.09 2.06 2.15 2.02 2.01 2.01 2.04 2.08 2.11 1.91 1.65 1.46 1.54 1.64 1.72 1.68 1.73 1.74 2.09 2.10 2.03 1.98
0.06 0.08 0.18 0.29 0.47 0.99 0.96 0.94 1.14 1.08 1.18 0.95 0.79 0.69 0.71 0.80 0.88 0.91 0.97 1.12 1.29 1.40 1.56 1.81 2.15 2.30 2.23 2.08 2.00 2.07 2.15 2.14 2.08 2.08 2.05 1.85 1.80 1.79 1.64 1.64 1.71 1.62 1.59 1.61 1.67 1.93 1.95 2.00 2.08
0.08 0.12 0.33 0.69 1.07 1.23 0.81 0.89 1.11 0.91 0.85 0.71 0.51 0.50 0.62 0.79 0.92 0.98 0.94 0.91 0.97 1.12 1.26 1.36 1.59 1.88 2.00 1.96 1.94 1.98 2.14 2.07 1.92 1.81 1.74 1.69 1.53 1.48 1.53 1.60 1.72 1.57 1.53 1.60 1.80 1.91 1.92 1.98 2.00
0.07 0.08 0.19 0.35 0.46 0.61 0.78 1.16 1.26 0.92 0.64 0.40 0.32 0.43 0.66 0.79 0.81 0.84 0.84 0.81 0.78 0.86 1.04 1.18 1.41 1.61 1.82 1.84 1.81 1.85 1.94 1.87 1.75 1.77 1.59 1.55 1.48 1.42 1.52 1.58 1.57 1.54 1.53 1.54 1.87 1.81 1.82 1.88 1.81
0.07 0.07 0.08 0.14 0.19 0.40 0.78 1.09 1.05 0.82 0.63 0.45 0.39 0.43 0.64 0.67 0.62 0.74 0.80 0.89 0.88 0.85 0.97 1.12 1.37 1.61 1.82 1.90 1.92 1.86 1.86 1.88 1.86 1.81 1.61 1.44 1.57 1.49 1.59 1.63 1.57 1.58 1.72 1.86 2.02 1.88 1.88 1.94 1.77
0.07 0.08 0.09 0.11 0.20 0.35 0.63 1.03 1.22 1.01 0.78 0.62 0.54 0.53 0.63 0.66 0.67 0.86 1.01 0.98 0.84 0.73 0.80 0.99 1.25 1.61 1.80 1.93 1.91 1.78 1.93 1.87 1.87 1.82 1.69 1.54 1.53 1.53 1.65 1.76 1.72 1.77 1.81 1.93 2.01 1.86 1.94 1.94 1.83
0.08 0.09 0.10 0.10 0.12 0.22 0.49 0.70 0.66 0.62 0.59 0.62 0.68 0.62 0.53 0.62 0.75 0.91 1.09 1.04 0.82 0.72 0.70 0.85 1.19 1.48 1.62 1.71 1.78 1.72 1.69 1.64 1.65 1.70 1.70 1.67 1.64 1.58 1.59 1.68 1.70 1.68 1.74 1.83 1.93 1.80 1.84 1.83 1.85
0.11 0.12 0.13 0.14 0.14 0.13 0.26 0.50 0.39 0.44 0.54 0.61 0.68 0.75 0.76 0.78 0.81 0.77 0.90 1.03 0.95 0.83 0.75 0.93 1.22 1.40 1.46 1.50 1.48 1.47 1.53 1.53 1.47 1.46 1.51 1.57 1.50 1.44 1.51 1.56 1.53 1.47 1.59 1.75 1.79 1.72 1.79 1.84 1.80